• In Hungary
  • List of Countries
  • For 7 days
  • Water Temperature
  • Satellite Maps
  • Weather Map
  • News
  • Weather Widgets
  • user-avatar
    Login

    Hourly Weather Edva

    Today, 23 September, Sunday

    Time Temperature Precipitation Wind Pressure Humidity
    00:00 +14°C° 0 mm 3 mps 740 mmHg 96%
    01:00 +14°C° 0 mm 3 mps 740 mmHg 96%
    02:00 +14°C° 0 mm 3 mps 740 mmHg 96%
    03:00 +14°C° 0 mm 3 mps 740 mmHg 97%
    04:00 +14°C° 0 mm 3 mps 739 mmHg 97%
    05:00 +13°C° 0 mm 3 mps 739 mmHg 96%
    06:00 +13°C° 0 mm 3 mps 739 mmHg 96%
    07:00 +14°C° 0 mm 3 mps 739 mmHg 93%
    08:00 +14°C° 0 mm 4 mps 739 mmHg 90%
    09:00 +15°C° 0 mm 4 mps 738 mmHg 87%
    10:00 +18°C° 0 mm 4 mps 738 mmHg 80%
    11:00 +19°C° 0 mm 4 mps 738 mmHg 72%
    12:00 +21°C° 0 mm 5 mps 738 mmHg 65%
    13:00 +21°C° 0.1 mm 5 mps 737 mmHg 64%
    14:00 +21°C° 0.1 mm 5 mps 737 mmHg 63%
    15:00 +21°C° 0.1 mm 4 mps 737 mmHg 62%
    16:00 +20°C° 0.1 mm 4 mps 736 mmHg 67%
    17:00 +19°C° 0.1 mm 5 mps 735 mmHg 71%
    18:00 +17°C° 0.1 mm 5 mps 735 mmHg 76%
    19:00 +17°C° 0 mm 5 mps 735 mmHg 77%
    20:00 +16°C° 0 mm 5 mps 734 mmHg 78%
    21:00 +16°C° 0 mm 5 mps 734 mmHg 80%
    22:00 +15°C° 0 mm 5 mps 734 mmHg 80%
    23:00 +15°C° 0 mm 5 mps 734 mmHg 81%

    Tomorrow, 24 September, Monday

    Time Temperature Precipitation Wind Pressure Humidity
    00:00 +15°C° 0 mm 5 mps 734 mmHg 82%
    01:00 +14°C° 0.1 mm 4 mps 734 mmHg 82%
    02:00 +12°C° 0.1 mm 4 mps 735 mmHg 83%
    03:00 +11°C° 0.1 mm 4 mps 735 mmHg 83%
    04:00 +10°C° 0 mm 3 mps 735 mmHg 84%
    05:00 +10°C° 0 mm 3 mps 736 mmHg 85%
    06:00 +9°C° 0 mm 2 mps 736 mmHg 85%
    07:00 +9°C° 0 mm 2 mps 736 mmHg 83%
    08:00 +10°C° 0 mm 2 mps 736 mmHg 80%
    09:00 +10°C° 0 mm 2 mps 737 mmHg 77%
    10:00 +10°C° 0.1 mm 2 mps 737 mmHg 78%
    11:00 +10°C° 0.1 mm 2 mps 737 mmHg 78%
    12:00 +10°C° 0.1 mm 2 mps 737 mmHg 78%
    13:00 +10°C° 0.1 mm 2 mps 737 mmHg 78%
    14:00 +10°C° 0.1 mm 2 mps 737 mmHg 79%
    15:00 +10°C° 0.1 mm 2 mps 737 mmHg 79%
    16:00 +9°C° 0 mm 2 mps 737 mmHg 82%
    17:00 +9°C° 0 mm 2 mps 738 mmHg 85%
    18:00 +8°C° 0 mm 2 mps 738 mmHg 88%
    19:00 +8°C° 0 mm 2 mps 738 mmHg 87%
    20:00 +8°C° 0 mm 2 mps 738 mmHg 86%
    21:00 +7°C° 0 mm 2 mps 738 mmHg 85%
    22:00 +7°C° 0 mm 2 mps 738 mmHg 84%
    23:00 +7°C° 0 mm 2 mps 739 mmHg 82%

    Day after tomorrow, 25 September, Tuesday

    Time Temperature Precipitation Wind Pressure Humidity
    00:00 +7°C° 0 mm 2 mps 739 mmHg 80%
    01:00 +7°C° 0 mm 2 mps 739 mmHg 81%
    02:00 +7°C° 0 mm 2 mps 739 mmHg 82%
    03:00 +7°C° 0 mm 2 mps 739 mmHg 83%
    04:00 +6°C° 0 mm 2 mps 739 mmHg 85%
    05:00 +6°C° 0 mm 2 mps 739 mmHg 88%
    06:00 +6°C° 0 mm 1 mps 739 mmHg 91%
    07:00 +6°C° 0 mm 2 mps 740 mmHg 87%
    08:00 +7°C° 0 mm 2 mps 740 mmHg 82%
    09:00 +8°C° 0 mm 2 mps 740 mmHg 78%
    10:00 +9°C° 0 mm 2 mps 739 mmHg 76%
    11:00 +10°C° 0 mm 2 mps 739 mmHg 73%
    12:00 +10°C° 0 mm 2 mps 739 mmHg 71%
    13:00 +10°C° 0.5 mm 2 mps 739 mmHg 75%
    14:00 +10°C° 0.5 mm 2 mps 738 mmHg 79%
    15:00 +9°C° 0.5 mm 2 mps 738 mmHg 83%
    16:00 +9°C° 0.6 mm 2 mps 738 mmHg 86%
    17:00 +8°C° 0.6 mm 2 mps 737 mmHg 90%
    18:00 +7°C° 0.6 mm 2 mps 737 mmHg 93%
    19:00 +7°C° 0.5 mm 2 mps 736 mmHg 93%
    20:00 +7°C° 0.5 mm 3 mps 736 mmHg 94%
    21:00 +7°C° 0.5 mm 3 mps 735 mmHg 94%
    22:00 +7°C° 0.4 mm 3 mps 735 mmHg 94%
    23:00 +7°C° 0.4 mm 3 mps 734 mmHg 93%

    26 September, Wednesday

    Time Temperature Precipitation Wind Pressure Humidity
    00:00 +7°C° 0.4 mm 3 mps 734 mmHg 93%
    01:00 +6°C° 0.6 mm 2 mps 733 mmHg 94%
    02:00 +6°C° 0.6 mm 2 mps 733 mmHg 95%
    03:00 +6°C° 0.6 mm 2 mps 732 mmHg 95%
    04:00 +6°C° 0.7 mm 2 mps 732 mmHg 96%
    05:00 +7°C° 0.7 mm 1 mps 732 mmHg 96%
    06:00 +7°C° 0.7 mm 1 mps 732 mmHg 97%
    07:00 +7°C° 0.5 mm 1 mps 732 mmHg 96%
    08:00 +7°C° 0.5 mm 1 mps 732 mmHg 96%
    09:00 +8°C° 0.5 mm 1 mps 732 mmHg 95%
    10:00 +6°C° 0.7 mm 2 mps 732 mmHg 94%
    11:00 +5°C° 0.7 mm 3 mps 733 mmHg 93%
    12:00 +5°C° 0.7 mm 4 mps 733 mmHg 92%
    13:00 +5°C° 0.3 mm 4 mps 734 mmHg 90%
    14:00 +5°C° 0.3 mm 4 mps 735 mmHg 89%
    15:00 +3°C° 0.3 mm 5 mps 735 mmHg 87%
    16:00 +4°C° 0 mm 4 mps 736 mmHg 86%
    17:00 +3°C° 0 mm 4 mps 737 mmHg 85%
    18:00 +3°C° 0 mm 3 mps 737 mmHg 84%
    19:00 +2°C° 0 mm 3 mps 737 mmHg 85%
    20:00 +1°C° 0 mm 3 mps 738 mmHg 87%
    21:00 +1°C° 0 mm 2 mps 738 mmHg 88%
    22:00 0°C° 0 mm 3 mps 737 mmHg 90%
    23:00 0°C° 0 mm 3 mps 737 mmHg 92%

    27 September, Thursday

    Time Temperature Precipitation Wind Pressure Humidity
    00:00 0°C° 0 mm 3 mps 737 mmHg 94%
    01:00 0°C° 0 mm 4 mps 736 mmHg 93%
    02:00 0°C° 0 mm 4 mps 735 mmHg 93%
    03:00 0°C° 0 mm 5 mps 735 mmHg 92%
    04:00 0°C° 0.1 mm 5 mps 734 mmHg 91%
    05:00 +1°C° 0.1 mm 6 mps 733 mmHg 90%
    06:00 +1°C° 0.1 mm 6 mps 732 mmHg 88%
    07:00 +2°C° 0.2 mm 6 mps 731 mmHg 87%
    08:00 +2°C° 0.2 mm 6 mps 730 mmHg 86%
    09:00 +3°C° 0.2 mm 7 mps 729 mmHg 84%
    10:00 +3°C° 0.4 mm 7 mps 729 mmHg 84%
    11:00 +3°C° 0.4 mm 7 mps 728 mmHg 83%
    12:00 +4°C° 0.4 mm 7 mps 728 mmHg 82%
    13:00 +4°C° 0.3 mm 7 mps 727 mmHg 82%
    14:00 +4°C° 0.3 mm 7 mps 727 mmHg 83%
    15:00 +3°C° 0.3 mm 6 mps 726 mmHg 83%
    16:00 +3°C° 0.3 mm 6 mps 726 mmHg 84%
    17:00 +3°C° 0.3 mm 6 mps 726 mmHg 86%
    18:00 +3°C° 0.3 mm 5 mps 725 mmHg 87%
    19:00 +3°C° 0.2 mm 5 mps 725 mmHg 88%
    20:00 +4°C° 0.2 mm 4 mps 725 mmHg 89%
    21:00 +4°C° 0.2 mm 4 mps 724 mmHg 90%
    22:00 +4°C° 0 mm 4 mps 724 mmHg 90%
    23:00 +4°C° 0 mm 4 mps 724 mmHg 90%

    28 September, Friday

    Time Temperature Precipitation Wind Pressure Humidity
    00:00 +4°C° 0 mm 4 mps 723 mmHg 90%
    01:00 +4°C° 0.1 mm 4 mps 723 mmHg 90%
    02:00 +4°C° 0.1 mm 4 mps 722 mmHg 89%
    03:00 +3°C° 0.1 mm 5 mps 722 mmHg 89%
    04:00 +3°C° 0.3 mm 5 mps 721 mmHg 89%
    05:00 +3°C° 0.3 mm 5 mps 721 mmHg 88%
    06:00 +3°C° 0.3 mm 5 mps 720 mmHg 87%
    07:00 +3°C° 1.1 mm 5 mps 720 mmHg 88%
    08:00 +3°C° 1.1 mm 5 mps 720 mmHg 88%
    09:00 +3°C° 1.1 mm 5 mps 720 mmHg 89%
    10:00 +3°C° 0.6 mm 5 mps 720 mmHg 88%
    11:00 +5°C° 0.6 mm 5 mps 720 mmHg 87%
    12:00 +5°C° 0.6 mm 5 mps 720 mmHg 86%
    13:00 +5°C° 0.2 mm 5 mps 721 mmHg 86%
    14:00 +3°C° 0.2 mm 5 mps 721 mmHg 85%
    15:00 +3°C° 0.2 mm 5 mps 721 mmHg 85%
    16:00 +3°C° 0.3 mm 5 mps 722 mmHg 86%
    17:00 +3°C° 0.3 mm 5 mps 722 mmHg 86%
    18:00 +2°C° 0.3 mm 5 mps 722 mmHg 87%
    19:00 +2°C° 0.3 mm 5 mps 723 mmHg 87%
    20:00 +2°C° 0.3 mm 5 mps 723 mmHg 88%
    21:00 +2°C° 0.3 mm 5 mps 723 mmHg 88%
    22:00 +3°C° 0.3 mm 4 mps 723 mmHg 89%
    23:00 +3°C° 0.3 mm 4 mps 723 mmHg 89%
    Show more